GFSGL_700_spd_336.txt.gz
Wind_Speed
21 23 22 23 24 21 22 27 28 21 19 21 21 23 23 27 32 38 41 44 47 46 46 45 42 41 37 37 37 38 35 35 40 40 39 36 35 34 32 33 30 27 32
22 24 24 23 19 18 20 21 19 19 19 22 24 22 27 33 38 40 42 43 44 45 43 40 38 37 35 33 33 33 33 32 37 37 36 33 31 30 29 29 29 29 31
24 23 21 19 19 20 22 20 20 22 25 25 27 31 35 38 40 40 43 43 42 41 39 35 31 30 29 25 24 25 26 27 29 33 33 30 27 26 29 30 29 24 24
19 17 18 17 20 18 19 23 25 25 26 30 33 35 37 38 40 40 38 37 34 32 31 30 29 27 25 25 29 30 30 30 29 25 29 28 28 27 26 27 28 24 26
13 17 20 21 19 23 24 24 26 27 28 30 33 36 40 41 37 36 33 30 30 31 31 30 30 30 32 33 35 34 35 33 30 28 26 26 25 25 25 25 28 28 31
14 16 17 21 25 27 25 24 24 25 29 34 33 36 37 34 31 28 31 30 30 31 32 30 32 31 31 33 37 36 34 33 31 30 26 24 24 24 25 26 26 26 30
12 15 20 24 23 21 19 20 24 32 35 34 30 29 26 27 27 28 32 34 34 33 34 33 35 30 33 37 33 29 27 26 28 31 29 28 29 25 27 25 26 25 24
18 21 23 22 21 22 23 26 29 31 29 27 26 25 28 28 31 31 31 31 30 31 29 26 22 27 34 31 32 33 32 30 28 30 32 29 29 29 29 28 27 26 24
21 23 25 23 22 23 25 26 25 24 24 24 24 27 29 29 33 29 30 24 26 26 23 24 27 26 29 31 32 32 33 33 31 32 33 34 33 32 30 30 30 28 28
23 27 25 22 22 21 22 21 21 21 23 25 26 30 32 36 32 28 26 25 25 24 22 23 25 29 26 28 31 33 35 30 27 25 27 32 35 36 36 32 30 30 28
24 31 24 21 21 21 21 23 24 26 27 28 29 29 35 34 29 27 26 26 24 24 27 29 23 22 24 25 27 31 31 23 18 19 21 25 27 31 36 35 31 29 26
28 24 21 22 22 22 24 25 28 29 31 32 32 32 33 30 28 29 29 28 27 27 29 24 20 20 24 27 30 31 32 20 15 15 16 17 18 23 30 35 32 29 27
21 21 20 21 22 23 25 28 30 33 34 34 33 31 27 26 29 30 30 29 27 24 18 17 17 22 25 25 27 28 26 18 13 15 18 16 20 18 17 26 29 26 26
18 18 20 22 24 27 31 33 34 34 33 30 28 25 26 28 29 28 23 22 17 14 12 14 19 24 24 28 23 20 17 18 16 18 20 20 19 16 15 15 23 25 26
18 20 22 25 27 31 34 36 29 23 20 20 20 23 23 22 17 12 11 9 10 11 15 19 21 20 23 23 20 19 18 17 17 18 23 29 14 15 15 16 20 21 22
23 25 23 25 30 33 34 29 18 14 14 16 18 17 16 12 10 9 11 13 15 17 18 19 20 21 20 19 18 16 17 17 18 20 20 25 17 9 11 16 20 20 18
19 22 22 29 33 29 24 14 13 12 12 13 13 14 14 12 14 16 19 21 22 21 20 18 18 19 19 19 18 17 17 17 18 19 19 18 18 9 11 9 11 14 17
17 22 27 31 25 22 10 10 10 9 9 10 11 12 13 16 17 16 17 20 19 17 17 17 18 18 20 20 19 18 16 14 14 15 16 15 19 11 6 6 8 13 13
45 30 28 18 23 7 8 8 8 7 8 9 8 9 11 13 15 20 19 21 22 20 17 17 18 19 18 19 20 19 18 15 13 12 12 12 17 9 9 9 7 10 12
26 20 11 13 12 6 8 8 9 9 9 7 6 7 10 12 14 19 18 21 22 21 18 19 20 20 21 20 19 19 17 14 11 9 7 8 16 10 7 5 6 15 8
11 5 6 7 7 9 10 10 11 11 11 9 8 7 7 14 15 16 19 21 22 21 18 19 20 21 21 20 20 19 17 17 14 9 5 5 14 18 19 20 16 17 31
3 6 6 6 9 9 13 13 13 13 12 15 13 7 6 12 18 15 18 21 22 20 18 19 20 19 21 20 19 18 17 17 16 13 7 5 8 14 15 17 21 25 27
5 5 9 10 10 10 12 16 17 13 11 13 13 11 12 15 15 17 16 18 20 19 17 19 20 20 21 21 16 17 18 18 19 16 11 6 6 8 9 13 16 21 16
8 10 13 13 14 12 12 11 11 9 9 10 11 11 13 18 14 17 19 17 16 16 16 17 18 18 18 19 15 15 18 18 20 20 18 12 6 8 9 14 13 13 18
13 13 12 10 13 11 11 10 10 13 14 13 14 11 11 10 15 19 17 16 13 12 13 14 15 15 15 15 14 15 16 16 18 18 16 16 12 4 9 13 14 15 12
13 14 15 15 13 10 10 9 10 10 11 11 10 8 8 9 11 15 15 13 11 10 10 11 11 12 13 12 13 13 14 15 16 15 13 15 14 15 8 7 13 20 18

GFSGL_700_spd_339.txt.gz
Wind_Speed
13 15 18 20 19 17 17 16 18 19 16 17 20 23 25 26 29 32 34 37 40 39 40 35 33 32 31 31 31 31 32 33 36 35 35 34 36 36 32 32 33 31 30
7 18 21 22 17 17 16 18 18 21 20 21 22 24 24 25 29 33 35 37 35 32 32 30 29 28 26 26 25 24 23 23 27 30 28 28 30 30 31 32 31 31 33
12 19 20 17 18 17 18 19 19 21 23 25 27 28 29 31 32 33 34 33 31 29 29 29 30 30 28 26 24 24 25 27 28 29 31 30 27 25 28 28 31 33 34
16 14 13 15 17 18 19 20 23 26 28 29 28 28 31 36 35 35 32 31 30 29 31 30 32 31 29 28 27 27 30 32 33 35 32 30 29 25 27 24 29 32 30
14 11 13 16 20 19 22 27 30 30 27 27 29 33 36 36 34 32 31 30 29 31 29 31 29 28 27 28 29 27 31 34 34 32 30 28 27 25 27 24 24 26 28
11 12 14 16 20 23 26 30 29 27 26 29 33 35 33 31 31 30 30 29 29 28 29 29 27 26 28 25 23 29 32 31 31 30 29 28 25 25 24 26 26 25 28
11 13 16 17 21 23 23 23 24 26 29 31 32 30 28 29 29 31 31 30 27 26 25 26 23 21 22 25 25 24 26 30 33 33 32 29 29 25 28 28 27 28 27
20 14 13 20 22 22 22 23 25 27 29 28 27 27 28 30 31 30 31 29 27 24 26 27 22 21 23 24 26 25 26 29 32 35 38 32 32 31 30 30 28 29 28
18 18 17 22 23 22 22 23 24 25 25 25 27 28 29 32 33 32 32 26 24 24 25 25 23 27 30 28 26 25 28 29 31 34 36 36 36 34 33 32 29 30 29
10 17 22 23 20 20 21 22 23 23 24 26 28 30 32 33 35 36 31 26 25 25 24 26 28 26 25 26 28 28 28 27 29 25 25 26 26 28 31 35 33 34 31
11 18 17 16 17 18 19 21 23 25 28 29 30 33 36 36 35 34 28 27 28 27 27 27 27 22 23 24 26 28 28 28 26 19 16 19 22 25 27 29 29 32 34
15 17 16 18 18 20 21 23 26 29 31 33 36 36 36 34 32 29 30 30 29 27 25 22 21 20 21 23 23 26 27 25 23 19 17 17 18 22 20 21 24 25 30
12 15 16 19 21 22 25 28 31 33 36 36 32 29 26 25 27 29 28 25 23 21 19 16 17 19 22 23 24 26 23 19 20 19 16 15 20 24 28 21 19 19 25
11 15 20 20 22 24 29 31 34 35 33 27 22 20 21 22 21 19 15 16 17 18 14 16 19 21 23 24 24 23 22 21 22 22 23 23 26 29 14 15 12 12 19
16 19 22 26 26 27 27 31 32 29 21 16 16 17 16 13 13 12 13 14 15 15 16 17 18 18 18 18 20 21 21 21 21 22 23 24 20 23 9 14 13 13 16
18 22 28 22 23 23 29 30 21 14 13 12 12 12 13 11 10 12 16 18 19 20 19 18 17 18 18 18 19 19 20 21 21 21 21 21 18 21 12 9 14 15 15
24 23 25 28 18 25 24 16 14 10 8 8 9 10 9 11 14 17 19 21 23 22 19 18 18 18 19 19 19 19 19 19 19 18 19 19 18 20 13 12 11 11 18
26 27 22 13 13 17 12 10 8 7 5 6 6 7 9 11 14 18 20 21 20 20 17 16 17 18 19 20 19 19 18 17 16 14 12 13 19 12 12 5 12 11 13
28 17 11 6 8 8 8 10 9 8 8 6 5 7 9 12 16 18 21 21 21 20 17 18 19 19 20 19 19 18 18 18 15 10 8 14 16 10 9 3 5 13 12
9 10 7 6 7 6 7 6 6 8 9 7 7 7 6 10 14 16 20 23 21 19 18 19 20 20 20 19 18 17 18 18 16 9 5 10 15 11 12 8 6 9 15
8 7 8 3 6 7 9 10 9 9 9 9 12 16 9 7 11 16 17 21 21 18 17 19 19 21 22 17 15 17 18 19 16 11 5 7 13 12 12 11 8 2 7
8 7 9 11 9 7 10 12 12 10 8 10 13 11 6 10 14 17 20 20 20 18 17 17 18 19 20 16 16 16 18 17 19 14 7 2 14 16 17 19 23 21 24
9 12 10 11 13 20 9 13 14 12 9 8 10 10 10 10 15 16 18 21 18 17 15 15 17 17 17 17 17 16 18 20 19 19 12 4 2 13 15 17 17 19 21
14 12 11 10 11 11 12 11 12 10 10 12 10 12 11 14 12 15 17 20 16 14 13 13 14 14 14 15 15 16 17 18 18 17 16 8 2 3 10 11 16 11 17
15 15 14 12 10 9 8 8 11 12 12 14 14 14 14 14 14 15 17 15 12 12 11 10 11 12 12 13 13 14 16 18 18 15 14 15 5 8 7 8 10 14 17
15 16 15 14 13 12 11 10 9 10 10 10 10 9 10 10 11 11 11 10 9 9 8 8 9 10 11 11 12 12 13 15 19 17 13 9 13 5 6 9 11 11 9

GFSGL_700_spd_342.txt.gz
Wind_Speed
47 24 13 16 20 22 25 24 22 22 20 21 21 22 21 21 24 27 30 34 37 38 38 35 32 29 26 26 26 25 25 23 23 22 24 25 29 31 32 35 34 35 37
35 24 15 20 18 20 26 22 20 20 21 22 21 20 22 26 30 33 33 36 35 33 29 29 27 27 28 27 23 21 21 23 24 27 27 26 27 28 29 28 30 33 35
2 2 5 13 14 18 19 19 19 20 20 20 22 25 28 30 30 31 34 31 27 27 27 26 27 28 27 22 23 27 24 23 24 26 27 26 24 25 26 28 29 29 31
7 6 12 12 13 14 16 17 18 18 19 21 24 26 27 31 33 32 30 27 26 28 29 28 28 28 28 27 29 26 26 25 27 28 29 23 24 24 27 24 24 24 26
7 8 9 9 10 11 11 15 21 22 21 21 24 27 30 31 30 29 28 27 28 25 29 28 26 27 29 28 29 25 25 24 26 27 25 25 29 21 24 23 24 22 23
9 10 10 11 9 10 16 20 22 20 20 23 27 29 30 28 28 27 27 29 29 25 31 28 26 26 27 25 22 22 27 28 26 29 31 29 30 26 28 28 27 28 24
10 13 13 12 9 12 14 18 19 20 23 25 27 27 27 28 27 28 29 31 31 33 30 28 24 25 26 23 23 21 25 28 28 29 34 33 32 31 32 32 31 31 30
17 17 14 10 13 14 15 19 20 22 23 24 25 25 27 27 29 30 31 33 32 32 27 25 25 25 27 26 27 25 23 25 29 32 35 36 37 36 33 33 32 32 32
30 29 22 20 25 20 16 16 19 20 20 22 24 26 28 31 33 33 32 32 32 28 26 27 27 27 29 29 27 25 23 25 29 32 33 33 32 28 28 34 35 33 30
29 24 12 12 14 12 13 16 18 19 22 24 27 29 33 34 38 37 33 30 27 25 26 27 31 28 27 28 25 25 24 23 25 25 26 25 22 19 19 21 21 25 29
15 5 9 10 11 13 15 18 20 23 26 28 31 34 34 27 28 30 29 27 27 29 27 23 24 27 27 23 23 23 24 23 20 19 19 19 18 16 17 20 21 20 24
4 8 10 12 13 16 17 20 25 27 31 33 34 29 23 23 24 26 26 27 26 24 20 21 21 21 20 21 23 24 24 21 15 18 21 19 19 17 19 22 21 20 18
8 11 14 14 19 22 25 27 28 32 32 31 22 23 20 20 16 22 23 21 18 18 18 17 15 16 20 21 23 22 21 16 16 19 23 19 22 22 23 27 17 23 18
15 18 20 18 22 26 31 33 32 27 26 20 17 15 12 17 17 17 16 17 18 19 19 18 18 17 17 19 19 20 18 17 19 21 22 19 19 17 21 21 13 13 14
21 25 21 27 29 25 18 17 21 20 17 14 13 11 9 13 13 14 15 17 17 18 17 16 16 16 15 17 18 20 19 20 21 22 22 21 18 16 19 20 13 13 9
26 23 31 23 23 22 14 21 19 14 12 10 9 9 10 11 13 17 20 20 21 21 20 17 16 17 18 18 19 19 20 21 20 19 18 18 16 17 20 15 11 11 10
28 31 19 24 13 17 17 13 13 10 10 9 10 9 10 12 16 21 23 24 22 20 17 16 16 17 17 17 17 18 18 18 15 12 14 15 16 20 11 11 11 10 12
16 21 21 17 10 12 8 6 6 6 7 10 8 9 11 13 17 21 24 22 19 19 16 15 16 17 18 18 17 17 18 18 15 10 9 15 17 15 13 9 5 12 10
12 11 11 7 8 6 7 7 4 4 5 4 10 12 13 14 16 21 25 23 18 17 16 17 17 19 20 17 17 15 16 16 16 10 6 15 12 19 12 2 1 14 10
6 7 6 6 5 5 6 6 8 10 7 8 9 12 16 17 11 16 21 22 17 16 17 17 18 20 20 17 18 19 20 17 14 10 7 16 18 19 6 3 6 7 9
8 9 7 4 4 5 5 8 11 9 10 12 14 17 16 6 10 15 16 21 23 18 17 17 17 18 18 16 16 19 19 19 16 12 7 17 20 15 12 14 12 9 10
10 11 10 7 8 13 17 8 16 13 13 14 13 12 12 9 11 14 15 19 22 22 18 16 16 16 15 14 15 18 20 20 18 13 7 10 19 21 19 19 22 24 25
7 9 11 13 12 11 13 13 13 15 14 15 16 16 16 17 15 17 15 16 20 20 16 14 14 14 14 13 14 16 19 20 19 16 12 6 11 13 16 20 21 24 24
10 9 9 9 7 5 6 7 13 12 14 15 15 17 18 19 19 18 16 18 19 16 13 12 13 12 12 12 13 13 16 20 17 15 15 8 8 13 13 16 12 13 14
13 12 12 12 11 10 9 9 11 13 13 12 12 12 12 12 13 14 14 14 13 11 10 9 10 10 11 11 12 13 15 18 18 12 12 11 5 4 8 9 8 11 10
16 17 15 14 14 13 12 11 11 11 14 15 14 13 12 12 12 12 11 11 10 9 8 7 8 8 9 9 10 11 13 17 20 14 8 9 9 3 5 5 8 10 9

GFSGL_700_spd_345.txt.gz
Wind_Speed
48 51 49 47 30 39 26 36 31 26 25 24 25 23 23 23 24 24 27 33 35 39 40 39 38 37 32 31 28 26 25 22 22 19 25 22 27 27 28 27 29 29 31
45 46 40 41 42 35 23 28 26 23 22 23 22 21 22 24 26 29 31 33 35 36 36 34 33 32 32 28 26 26 25 24 23 27 25 28 24 25 25 27 30 29 29
16 9 13 18 20 18 16 21 20 19 19 21 20 21 25 28 31 30 32 35 35 31 31 31 31 30 29 26 27 26 26 26 25 28 30 28 26 24 18 21 27 30 29
8 11 10 9 10 16 16 16 17 20 21 17 24 28 27 28 29 32 30 28 28 28 28 29 30 29 31 27 25 28 28 27 25 28 28 29 25 22 21 28 30 27 25
10 12 11 10 11 12 17 18 17 17 16 18 27 26 26 28 29 26 28 28 28 29 30 31 30 35 32 27 25 25 26 25 23 26 25 26 24 24 26 27 26 24 29
12 13 13 13 15 15 16 18 22 20 20 20 21 24 27 26 24 24 25 29 31 31 32 30 30 28 27 26 26 23 24 25 25 25 27 28 26 27 29 29 31 31 30
10 16 19 21 24 22 21 20 22 12 13 18 21 22 23 23 23 25 28 31 33 33 32 28 26 17 25 28 29 26 26 28 29 29 28 26 30 30 32 33 31 35 35
20 20 23 25 20 25 18 19 16 24 17 18 20 18 22 25 24 29 33 35 36 34 28 33 25 22 27 29 28 27 26 26 27 28 29 28 29 31 33 34 34 35 35
32 20 17 17 21 20 23 17 15 16 17 18 19 20 25 31 34 35 35 35 35 33 33 26 27 25 33 29 27 26 25 23 25 25 24 25 25 24 25 24 21 26 32
15 14 18 13 11 11 13 14 16 18 18 19 25 28 30 31 34 32 32 31 29 25 25 19 29 32 30 30 31 25 23 22 23 22 21 19 21 22 21 19 14 16 19
14 19 12 11 11 13 15 17 20 21 25 29 32 33 31 23 27 28 30 29 27 24 23 20 20 24 27 29 27 22 23 24 21 20 16 18 19 21 20 18 15 18 20
4 9 13 13 11 16 16 20 24 28 31 31 27 28 21 25 20 21 21 21 18 16 14 14 16 19 19 19 22 24 20 20 15 16 18 20 22 27 26 23 22 23 23
11 18 20 22 23 19 23 32 27 28 34 22 23 21 18 14 20 19 18 18 18 19 16 16 16 15 15 14 17 17 20 14 13 19 19 24 28 27 21 23 21 23 18
14 16 20 23 23 26 33 30 33 26 16 26 15 13 11 15 17 16 19 20 20 18 17 15 17 15 13 21 20 22 22 23 22 23 23 23 21 19 20 22 22 20 17
15 16 19 24 25 30 24 24 25 20 18 11 16 12 15 15 16 18 20 21 20 17 14 7 12 14 16 18 18 20 20 21 21 22 22 20 18 18 20 22 22 22 17
17 20 26 23 15 22 16 18 17 14 8 6 7 9 9 11 14 19 23 23 17 17 16 18 17 18 19 20 20 19 15 17 20 24 16 14 13 17 20 21 18 15 13
24 24 19 18 15 9 12 8 8 8 8 8 9 9 11 14 17 18 24 23 26 21 20 20 19 19 19 18 17 16 16 17 19 21 16 13 19 18 16 17 14 10 10
10 15 13 8 6 5 4 6 13 14 12 13 13 11 12 16 18 16 23 22 15 16 21 20 19 21 18 17 18 15 16 16 19 18 14 12 24 19 19 10 6 7 7
7 6 4 3 3 2 1 1 0 5 8 12 16 17 15 18 17 17 22 24 15 15 18 19 21 21 19 21 20 18 17 18 18 16 14 20 21 19 7 7 5 6 7
6 6 4 5 4 5 6 6 8 8 9 12 16 17 18 18 12 15 18 22 23 16 18 16 18 21 19 19 18 21 19 20 16 14 13 25 19 10 16 6 5 10 6
10 10 7 3 2 4 13 9 8 12 12 14 15 12 12 12 11 14 15 24 25 24 23 16 15 19 18 17 17 19 20 21 19 14 11 22 23 16 21 16 13 9 4
6 10 10 12 10 8 9 10 10 12 11 12 13 16 16 15 16 19 20 21 23 22 21 18 13 16 17 16 16 17 21 20 19 14 10 21 19 19 21 22 22 23 24
3 5 8 9 8 8 9 9 11 15 17 16 16 17 18 19 19 20 18 17 17 18 16 15 14 15 14 14 14 16 19 20 18 16 10 16 16 15 17 21 25 25 23
6 8 7 7 6 5 7 8 13 13 13 15 13 12 12 11 12 11 12 12 13 13 12 12 12 12 13 12 13 14 16 19 15 14 11 10 15 8 7 10 14 15 18
11 10 10 11 11 11 11 12 13 12 12 13 12 13 13 13 12 12 11 11 11 10 10 10 10 10 11 11 11 12 15 17 14 10 12 9 7 7 9 8 9 12 13
11 13 14 14 14 14 15 15 15 15 15 15 16 16 16 16 15 14 13 11 10 9 8 8 8 9 9 9 10 11 14 18 15 11 13 12 6 3 3 5 6 10 9